Time,TemperatureF,DewpointF,PressureIn,WindDirection,WindDirectionDegrees,WindSpeedMPH,WindSpeedGustMPH,Humidity,HourlyPrecipIn,Conditions,Clouds,dailyrainin,SolarRadiationWatts/m^2,SoftwareType,DateUTC
2013-04-19 00:08:00,51.4,18.7,29.78,North,-999,-999.0,-999.0,9,0.00,,,-99.99,0.0,Linux-Irox,2013-04-19 07:08:00,
2013-04-19 00:18:00,51.3,18.5,29.78,North,-999,-999.0,-999.0,9,0.00,,,-99.99,0.0,Linux-Irox,2013-04-19 07:18:00,
2013-04-19 00:28:00,50.7,18.0,29.78,North,-999,-999.0,-999.0,9,0.00,,,-99.99,0.0,Linux-Irox,2013-04-19 07:28:00,
2013-04-19 00:38:00,50.9,18.1,29.78,North,-999,-999.0,-999.0,9,0.00,,,-99.99,0.0,Linux-Irox,2013-04-19 07:38:00,
2013-04-19 00:48:00,50.2,17.4,29.78,North,-999,-999.0,-999.0,9,0.00,,,-99.99,0.0,Linux-Irox,2013-04-19 07:48:00,
2013-04-19 00:58:00,49.8,17.4,29.77,North,-999,-999.0,-999.0,10,0.00,,,-99.99,0.0,Linux-Irox,2013-04-19 07:58:00,
2013-04-19 01:08:00,49.6,17.2,29.77,North,-999,-999.0,-999.0,10,0.00,,,-99.99,0.0,Linux-Irox,2013-04-19 08:08:00,
2013-04-19 01:18:00,49.3,16.9,29.77,North,-999,-999.0,-999.0,10,0.00,,,-99.99,0.0,Linux-Irox,2013-04-19 08:18:00,
2013-04-19 01:28:00,49.5,17.1,29.77,North,-999,-999.0,-999.0,10,0.00,,,-99.99,0.0,Linux-Irox,2013-04-19 08:28:00,
2013-04-19 01:38:00,48.9,16.5,29.77,North,-999,-999.0,-999.0,10,0.00,,,-99.99,0.0,Linux-Irox,2013-04-19 08:38:00,
2013-04-19 01:48:00,48.7,16.3,29.77,North,-999,-999.0,-999.0,10,0.00,,,-99.99,0.0,Linux-Irox,2013-04-19 08:48:00,
2013-04-19 01:58:00,48.6,16.2,29.76,North,-999,-999.0,-999.0,10,0.00,,,-99.99,0.0,Linux-Irox,2013-04-19 08:58:00,
2013-04-19 02:08:00,48.2,15.8,29.76,North,-999,-999.0,-999.0,10,0.00,,,-99.99,0.0,Linux-Irox,2013-04-19 09:08:00,
2013-04-19 02:18:00,48.2,15.8,29.76,North,-999,-999.0,-999.0,10,0.00,,,-99.99,0.0,Linux-Irox,2013-04-19 09:18:00,
2013-04-19 02:28:00,47.8,15.4,29.76,North,-999,-999.0,-999.0,10,0.00,,,-99.99,0.0,Linux-Irox,2013-04-19 09:28:00,
2013-04-19 02:38:00,47.7,15.3,29.76,North,-999,-999.0,-999.0,10,0.00,,,-99.99,0.0,Linux-Irox,2013-04-19 09:38:00,
2013-04-19 02:48:00,47.7,15.3,29.76,North,-999,-999.0,-999.0,10,0.00,,,-99.99,0.0,Linux-Irox,2013-04-19 09:48:00,
2013-04-19 02:58:00,47.3,14.9,29.76,North,-999,-999.0,-999.0,10,0.00,,,-99.99,0.0,Linux-Irox,2013-04-19 09:58:00,
2013-04-19 03:08:00,47.3,14.9,29.76,North,-999,-999.0,-999.0,10,0.00,,,-99.99,0.0,Linux-Irox,2013-04-19 10:08:00,
2013-04-19 03:18:00,47.3,14.9,29.76,North,-999,-999.0,-999.0,10,0.00,,,-99.99,0.0,Linux-Irox,2013-04-19 10:18:00,
2013-04-19 03:28:00,47.3,14.9,29.76,North,-999,-999.0,-999.0,10,0.00,,,-99.99,0.0,Linux-Irox,2013-04-19 10:28:00,
2013-04-19 03:38:00,47.7,15.3,29.75,North,-999,-999.0,-999.0,10,0.00,,,-99.99,0.0,Linux-Irox,2013-04-19 10:38:00,
2013-04-19 03:48:00,48.4,16.0,29.75,North,-999,-999.0,-999.0,10,0.00,,,-99.99,0.0,Linux-Irox,2013-04-19 10:48:00,
2013-04-19 03:58:00,48.0,15.6,29.75,North,-999,-999.0,-999.0,10,0.00,,,-99.99,0.0,Linux-Irox,2013-04-19 10:58:00,
2013-04-19 04:08:00,47.5,15.1,29.75,North,-999,-999.0,-999.0,10,0.00,,,-99.99,0.0,Linux-Irox,2013-04-19 11:08:00,
2013-04-19 04:18:00,47.1,14.7,29.76,North,-999,-999.0,-999.0,10,0.00,,,-99.99,0.0,Linux-Irox,2013-04-19 11:18:00,
2013-04-19 04:28:00,46.8,14.4,29.76,North,-999,-999.0,-999.0,10,0.00,,,-99.99,0.0,Linux-Irox,2013-04-19 11:28:00,
2013-04-19 04:38:00,46.9,14.5,29.76,North,-999,-999.0,-999.0,10,0.00,,,-99.99,0.0,Linux-Irox,2013-04-19 11:38:00,
2013-04-19 04:48:00,46.8,14.4,29.76,North,-999,-999.0,-999.0,10,0.00,,,-99.99,0.0,Linux-Irox,2013-04-19 11:48:00,
2013-04-19 04:58:00,46.2,14.2,29.75,North,-999,-999.0,-999.0,11,0.00,,,-99.99,0.0,Linux-Irox,2013-04-19 11:58:00,
2013-04-19 05:08:00,46.2,14.2,29.75,North,-999,-999.0,-999.0,11,0.00,,,-99.99,0.0,Linux-Irox,2013-04-19 12:08:00,
2013-04-19 05:18:00,46.2,14.2,29.76,North,-999,-999.0,-999.0,11,0.00,,,-99.99,0.0,Linux-Irox,2013-04-19 12:18:00,
2013-04-19 05:28:00,46.2,14.2,29.76,North,-999,-999.0,-999.0,11,0.00,,,-99.99,0.0,Linux-Irox,2013-04-19 12:28:00,
2013-04-19 05:38:00,45.9,13.8,29.77,North,-999,-999.0,-999.0,11,0.00,,,-99.99,0.0,Linux-Irox,2013-04-19 12:38:00,
2013-04-19 05:48:00,46.0,14.0,29.77,North,-999,-999.0,-999.0,11,0.00,,,-99.99,0.0,Linux-Irox,2013-04-19 12:48:00,
2013-04-19 05:58:00,45.9,13.8,29.77,North,-999,-999.0,-999.0,11,0.00,,,-99.99,0.0,Linux-Irox,2013-04-19 12:58:00,
2013-04-19 06:08:00,46.0,14.0,29.77,North,-999,-999.0,-999.0,11,0.00,,,-99.99,0.0,Linux-Irox,2013-04-19 13:08:00,
2013-04-19 06:16:00,46.0,14.0,29.77,North,-999,-999.0,-999.0,11,0.00,,,-99.99,0.0,Linux-Irox,2013-04-19 13:16:00,
2013-04-19 06:18:00,46.0,14.0,29.77,North,-999,-999.0,-999.0,11,0.00,,,-99.99,0.0,Linux-Irox,2013-04-19 13:18:00,
2013-04-19 06:28:00,46.2,14.2,29.77,North,-999,-999.0,-999.0,11,0.00,,,-99.99,0.0,Linux-Irox,2013-04-19 13:28:00,
2013-04-19 06:31:00,45.9,13.8,29.77,North,-999,-999.0,-999.0,11,0.00,,,-99.99,0.0,Linux-Irox,2013-04-19 13:31:00,
2013-04-19 06:38:00,45.9,13.8,29.77,North,-999,-999.0,-999.0,11,0.00,,,-99.99,0.0,Linux-Irox,2013-04-19 13:38:00,
2013-04-19 06:46:00,46.4,14.0,29.77,North,-999,-999.0,-999.0,10,0.00,,,-99.99,0.0,Linux-Irox,2013-04-19 13:46:00,
2013-04-19 06:48:00,46.4,14.0,29.77,North,-999,-999.0,-999.0,10,0.00,,,-99.99,0.0,Linux-Irox,2013-04-19 13:48:00,
2013-04-19 06:58:00,46.6,14.2,29.77,North,-999,-999.0,-999.0,10,0.00,,,-99.99,0.0,Linux-Irox,2013-04-19 13:58:00,
2013-04-19 07:01:00,47.1,14.7,29.77,North,-999,-999.0,-999.0,10,0.00,,,-99.99,0.0,Linux-Irox,2013-04-19 14:01:00,
2013-04-19 07:08:00,47.7,15.3,29.77,North,-999,-999.0,-999.0,10,0.00,,,-99.99,0.0,Linux-Irox,2013-04-19 14:08:00,
2013-04-19 07:16:00,48.7,16.3,29.77,North,-999,-999.0,-999.0,10,0.00,,,-99.99,0.0,Linux-Irox,2013-04-19 14:16:00,
2013-04-19 07:18:00,48.7,16.3,29.79,North,-999,-999.0,-999.0,10,0.00,,,-99.99,0.0,Linux-Irox,2013-04-19 14:18:00,
2013-04-19 07:28:00,51.3,18.5,29.79,North,-999,-999.0,-999.0,9,0.00,,,-99.99,0.0,Linux-Irox,2013-04-19 14:28:00,
2013-04-19 07:31:00,53.1,19.9,29.79,North,-999,-999.0,-999.0,8,0.00,,,-99.99,0.0,Linux-Irox,2013-04-19 14:31:00,
2013-04-19 07:38:00,54.0,20.1,29.79,North,-999,-999.0,-999.0,6,0.00,,,-99.99,0.0,Linux-Irox,2013-04-19 14:38:00,
2013-04-19 07:46:00,53.8,19.9,29.79,North,-999,-999.0,-999.0,6,0.00,,,-99.99,0.0,Linux-Irox,2013-04-19 14:46:00,
2013-04-19 07:48:00,54.1,20.3,29.79,North,-999,-999.0,-999.0,6,0.00,,,-99.99,0.0,Linux-Irox,2013-04-19 14:48:00,
2013-04-19 07:58:00,53.6,19.8,29.80,North,-999,-999.0,-999.0,6,0.00,,,-99.99,0.0,Linux-Irox,2013-04-19 14:58:00,
2013-04-19 08:01:00,58.5,24.3,29.80,North,-999,-999.0,-999.0,5,0.00,,,-99.99,0.0,Linux-Irox,2013-04-19 15:01:00,
2013-04-19 08:16:00,62.1,27.9,29.80,North,-999,-999.0,-999.0,5,0.00,,,-99.99,0.0,Linux-Irox,2013-04-19 15:16:00,
2013-04-19 08:31:00,63.5,29.3,29.80,North,-999,-999.0,-999.0,5,0.00,,,-99.99,0.0,Linux-Irox,2013-04-19 15:31:00,
2013-04-19 08:46:00,63.0,28.8,29.82,North,-999,-999.0,-999.0,5,0.00,,,-99.99,0.0,Linux-Irox,2013-04-19 15:46:00,
2013-04-19 09:01:00,65.8,31.6,29.81,North,-999,-999.0,-999.0,5,0.00,,,-99.99,0.0,Linux-Irox,2013-04-19 16:01:00,
2013-04-19 09:16:00,66.0,31.8,29.81,North,-999,-999.0,-999.0,5,0.00,,,-99.99,0.0,Linux-Irox,2013-04-19 16:16:00,
2013-04-19 09:31:00,65.7,31.5,29.80,North,-999,-999.0,-999.0,5,0.00,,,-99.99,0.0,Linux-Irox,2013-04-19 16:31:00,
2013-04-19 09:46:00,68.2,34.0,29.81,North,-999,-999.0,-999.0,5,0.00,,,-99.99,0.0,Linux-Irox,2013-04-19 16:46:00,
2013-04-19 10:01:00,69.6,35.4,29.81,North,-999,-999.0,-999.0,5,0.00,,,-99.99,0.0,Linux-Irox,2013-04-19 17:01:00,
2013-04-19 10:16:00,70.7,36.5,29.81,North,-999,-999.0,-999.0,5,0.00,,,-99.99,0.0,Linux-Irox,2013-04-19 17:16:00,
2013-04-19 10:31:00,71.4,37.2,29.80,North,-999,-999.0,-999.0,5,0.00,,,-99.99,0.0,Linux-Irox,2013-04-19 17:31:00,
2013-04-19 10:46:00,71.1,36.9,29.80,North,-999,-999.0,-999.0,5,0.00,,,-99.99,0.0,Linux-Irox,2013-04-19 17:46:00,
2013-04-19 11:01:00,71.4,37.2,29.80,North,-999,-999.0,-999.0,5,0.00,,,-99.99,0.0,Linux-Irox,2013-04-19 18:01:00,
2013-04-19 11:16:00,71.6,37.4,29.80,North,-999,-999.0,-999.0,5,0.00,,,-99.99,0.0,Linux-Irox,2013-04-19 18:16:00,
2013-04-19 11:31:00,71.2,37.0,29.79,North,-999,-999.0,-999.0,5,0.00,,,-99.99,0.0,Linux-Irox,2013-04-19 18:31:00,
2013-04-19 11:46:00,72.1,37.9,29.80,North,-999,-999.0,-999.0,5,0.00,,,-99.99,0.0,Linux-Irox,2013-04-19 18:46:00,
2013-04-19 12:01:00,72.1,37.9,29.79,North,-999,-999.0,-999.0,5,0.00,,,-99.99,0.0,Linux-Irox,2013-04-19 19:01:00,
2013-04-19 12:16:00,71.1,36.9,29.79,North,-999,-999.0,-999.0,5,0.00,,,-99.99,0.0,Linux-Irox,2013-04-19 19:16:00,
2013-04-19 12:31:00,72.3,38.1,29.78,North,-999,-999.0,-999.0,5,0.00,,,-99.99,0.0,Linux-Irox,2013-04-19 19:31:00,
2013-04-19 12:46:00,71.6,37.4,29.77,North,-999,-999.0,-999.0,5,0.00,,,-99.99,0.0,Linux-Irox,2013-04-19 19:46:00,
2013-04-19 13:01:00,72.9,38.7,29.76,North,-999,-999.0,-999.0,5,0.00,,,-99.99,0.0,Linux-Irox,2013-04-19 20:01:00,
2013-04-19 13:16:00,72.9,38.7,29.76,North,-999,-999.0,-999.0,5,0.00,,,-99.99,0.0,Linux-Irox,2013-04-19 20:16:00,
2013-04-19 13:31:00,73.2,39.0,29.74,North,-999,-999.0,-999.0,5,0.00,,,-99.99,0.0,Linux-Irox,2013-04-19 20:31:00,
2013-04-19 13:46:00,73.8,39.6,29.74,North,-999,-999.0,-999.0,5,0.00,,,-99.99,0.0,Linux-Irox,2013-04-19 20:46:00,
2013-04-19 14:01:00,73.8,39.6,29.74,North,-999,-999.0,-999.0,5,0.00,,,-99.99,0.0,Linux-Irox,2013-04-19 21:01:00,
2013-04-19 14:16:00,73.9,39.7,29.74,North,-999,-999.0,-999.0,5,0.00,,,-99.99,0.0,Linux-Irox,2013-04-19 21:16:00,
2013-04-19 14:31:00,74.8,40.6,29.72,North,-999,-999.0,-999.0,5,0.00,,,-99.99,0.0,Linux-Irox,2013-04-19 21:31:00,
2013-04-19 14:46:00,74.5,40.3,29.71,North,-999,-999.0,-999.0,5,0.00,,,-99.99,0.0,Linux-Irox,2013-04-19 21:46:00,
2013-04-19 15:01:00,74.8,40.6,29.71,North,-999,-999.0,-999.0,5,0.00,,,-99.99,0.0,Linux-Irox,2013-04-19 22:01:00,
2013-04-19 15:16:00,75.0,40.8,29.71,North,-999,-999.0,-999.0,5,0.00,,,-99.99,0.0,Linux-Irox,2013-04-19 22:16:00,
2013-04-19 15:31:00,74.1,39.9,29.71,North,-999,-999.0,-999.0,5,0.00,,,-99.99,0.0,Linux-Irox,2013-04-19 22:31:00,
2013-04-19 15:46:00,73.4,39.2,29.68,North,-999,-999.0,-999.0,5,0.00,,,-99.99,0.0,Linux-Irox,2013-04-19 22:46:00,
2013-04-19 16:01:00,73.0,38.8,29.68,North,-999,-999.0,-999.0,5,0.00,,,-99.99,0.0,Linux-Irox,2013-04-19 23:01:00,
2013-04-19 16:16:00,72.9,38.7,29.68,North,-999,-999.0,-999.0,5,0.00,,,-99.99,0.0,Linux-Irox,2013-04-19 23:16:00,
2013-04-19 16:31:00,72.3,38.1,29.69,North,-999,-999.0,-999.0,5,0.00,,,-99.99,0.0,Linux-Irox,2013-04-19 23:31:00,
2013-04-19 16:46:00,72.7,38.5,29.66,North,-999,-999.0,-999.0,5,0.00,,,-99.99,0.0,Linux-Irox,2013-04-19 23:46:00,
2013-04-19 17:01:00,72.3,38.1,29.65,North,-999,-999.0,-999.0,5,0.00,,,-99.99,0.0,Linux-Irox,2013-04-20 00:01:00,
2013-04-19 17:16:00,71.4,37.2,29.65,North,-999,-999.0,-999.0,5,0.00,,,-99.99,0.0,Linux-Irox,2013-04-20 00:16:00,
2013-04-19 17:31:00,70.9,36.7,29.66,North,-999,-999.0,-999.0,5,0.00,,,-99.99,0.0,Linux-Irox,2013-04-20 00:31:00,
2013-04-19 17:46:00,70.3,36.1,29.66,North,-999,-999.0,-999.0,5,0.00,,,-99.99,0.0,Linux-Irox,2013-04-20 00:46:00,
2013-04-19 18:01:00,69.8,35.6,29.66,North,-999,-999.0,-999.0,5,0.00,,,-99.99,0.0,Linux-Irox,2013-04-20 01:01:00,
2013-04-19 18:16:00,68.9,34.7,29.66,North,-999,-999.0,-999.0,5,0.00,,,-99.99,0.0,Linux-Irox,2013-04-20 01:16:00,
2013-04-19 18:31:00,67.8,33.6,29.66,North,-999,-999.0,-999.0,5,0.00,,,-99.99,0.0,Linux-Irox,2013-04-20 01:31:00,
2013-04-19 18:46:00,66.7,32.5,29.66,North,-999,-999.0,-999.0,5,0.00,,,-99.99,0.0,Linux-Irox,2013-04-20 01:46:00,
2013-04-19 19:01:00,65.7,31.5,29.66,North,-999,-999.0,-999.0,5,0.00,,,-99.99,0.0,Linux-Irox,2013-04-20 02:01:00,
2013-04-19 19:16:00,64.4,30.2,29.66,North,-999,-999.0,-999.0,5,0.00,,,-99.99,0.0,Linux-Irox,2013-04-20 02:16:00,
2013-04-19 19:31:00,63.0,28.8,29.65,North,-999,-999.0,-999.0,5,0.00,,,-99.99,0.0,Linux-Irox,2013-04-20 02:31:00,
2013-04-19 19:46:00,61.9,27.7,29.66,North,-999,-999.0,-999.0,5,0.00,,,-99.99,0.0,Linux-Irox,2013-04-20 02:46:00,
2013-04-19 20:01:00,60.6,26.4,29.67,North,-999,-999.0,-999.0,5,0.00,,,-99.99,0.0,Linux-Irox,2013-04-20 03:01:00,
2013-04-19 20:16:00,59.9,25.7,29.67,North,-999,-999.0,-999.0,5,0.00,,,-99.99,0.0,Linux-Irox,2013-04-20 03:16:00,
2013-04-19 20:31:00,59.0,24.8,29.68,North,-999,-999.0,-999.0,5,0.00,,,-99.99,0.0,Linux-Irox,2013-04-20 03:31:00,
2013-04-19 20:46:00,58.5,24.3,29.67,North,-999,-999.0,-999.0,5,0.00,,,-99.99,0.0,Linux-Irox,2013-04-20 03:46:00,
2013-04-19 21:01:00,58.3,24.1,29.69,North,-999,-999.0,-999.0,5,0.00,,,-99.99,0.0,Linux-Irox,2013-04-20 04:01:00,
2013-04-19 21:16:00,57.4,23.2,29.69,North,-999,-999.0,-999.0,5,0.00,,,-99.99,0.0,Linux-Irox,2013-04-20 04:16:00,
2013-04-19 21:31:00,57.0,22.8,29.69,North,-999,-999.0,-999.0,5,0.00,,,-99.99,0.0,Linux-Irox,2013-04-20 04:31:00,
2013-04-19 21:46:00,56.8,22.6,29.68,North,-999,-999.0,-999.0,5,0.00,,,-99.99,0.0,Linux-Irox,2013-04-20 04:46:00,
2013-04-19 22:01:00,56.3,22.1,29.68,North,-999,-999.0,-999.0,5,0.00,,,-99.99,0.0,Linux-Irox,2013-04-20 05:01:00,
2013-04-19 22:16:00,56.1,21.9,29.68,North,-999,-999.0,-999.0,5,0.00,,,-99.99,0.0,Linux-Irox,2013-04-20 05:16:00,